Back to catalog

STARLINK-5530

AliveCommunicationsVLEO
NORAD 56494·PAYLOAD·🇺🇸 United States

Launched May 10, 2023 from Vandenberg Space Force Base

Loading…

Next Passes (next 24 hours)

TLE

FreshSource: CelesTrak SupGP

Epoch: Sep 14, 2026, 22:18 UTC

1 56494C 23064AY  26257.92965278 -.00041439  00000+0 -34738-2 0  2579
2 56494  70.0017 347.2914 0003216 272.1421 296.9280 14.98339217    10

Track STARLINK-5530 in real time with AllMySat

Download on the App Store